Location: Caltech
(34.1382°N, 118.1253°W)
Time: 16:44:39
(UTC-07:00)

Cosmos 1943 Rocket - Visible Passes

Search period start: 26 March 2015 00:00
Search period end: 05 April 2015 00:00
Orbit: 812 x 844 km, 71.0° (Epoch: 25 March)

Date Brightness Start Highest point End Pass type
(mag) Time Alt. Az. Time Alt. Az. Time Alt. Az.
26 Mar 4.8 04:20:55 10° SE 04:23:27 14° E 04:26:21 10° ENE visible
26 Mar 2.2 06:01:18 10° SSW 06:06:43 61° WNW 06:12:13 10° NNE visible
27 Mar 4.9 04:02:46 10° ESE 04:04:25 12° E 04:06:28 10° ENE visible
27 Mar 2.1 05:42:09 10° SSW 05:47:37 70° WNW 05:53:10 10° NNE visible
28 Mar 2.0 05:23:46 14° SSW 05:28:31 81° WNW 05:34:06 10° NNE visible
29 Mar 2.1 05:06:02 24° SSW 05:09:25 88° ESE 05:15:00 10° NNE visible
30 Mar 2.2 04:48:09 38° S 04:50:20 76° ESE 04:55:54 10° NNE visible
31 Mar 2.4 04:30:06 52° SSE 04:31:15 66° ESE 04:36:46 10° NNE visible
31 Mar 3.8 06:12:21 10° W 06:15:37 15° NW 06:18:39 10° NNW visible
01 Apr 2.5 04:11:58 56° ESE 04:12:10 56° ESE 04:17:37 10° NNE visible
01 Apr 3.7 05:53:31 12° W 05:56:24 17° NW 05:59:55 10° NNW visible
02 Apr 3.0 03:53:44 46° E 03:53:44 46° E 03:58:27 10° NNE visible
02 Apr 3.6 05:35:17 17° W 05:37:12 20° WNW 05:41:07 10° NNW visible
03 Apr 3.5 03:35:26 35° ENE 03:35:26 35° ENE 03:39:15 10° NE visible
03 Apr 3.4 05:16:58 22° WNW 05:18:00 23° WNW 05:22:15 10° N visible
04 Apr 4.0 03:17:03 27° ENE 03:17:03 27° ENE 03:20:01 10° NE visible
04 Apr 3.3 04:58:35 26° WNW 04:58:49 26° WNW 05:03:21 10° N visible
